星链-37146(STARLINK-37146)

导读

STARLINK-37146(NORAD编号68555)是SpaceX星链星座中的一颗低轨互联网卫星,归属SpaceX主导的星链卫星互联网项目,该项目旨在通过近地轨道卫星星座为全球提供高速宽带互联网服务。 目前公开可查询资料中暂未记录该卫星发生过在轨解体等异常事件,星链星座整体截至2025年底在轨活跃卫星超9000颗,通过升级星间激光链路提升通信性能,并优化了碰撞规避与空间天气应对能力,该卫星作为星链组网卫星承担着全球互联网覆盖的相关任务。

Basic Information
目录编号:
68555
目录名称:
STARLINK-37146
国际标识:
2026-070P
轨道中心:
EARTH
卫星名称:
星链-37146
卫星全名:
星链-37146(STARLINK-37146)
卫星状态:
在轨 (已飞行162 天)
发射日期:
2026-04-02 UTC
国别 :
美国 (US)
星等 :
--
This satellite is enrolled in the Space Conjunction Data Service (SCDS) and the current flight risk assessment level is: High Risk
Orbit Information
数据来源 国际轨道数据 AOE轨道数据
星历时间 2026-09-11T14:57:48+0800
12小时前
查看轨道信息
2026-09-05T23:00:00+0800
6天前
查看轨道信息
半长轴 6840.71km 6840.909km
偏心率 0.0001842 0.0001488
轨道倾角 53.159° 53.156°
近地点辐角 215.123° 83.774°
升交点赤经 216.748° 243.235°
平近点角 144.965° 285.630°
近地点 461.312km 461.754km
远地点 463.834km 463.79km
周期 93.845分钟 93.849分钟
每日圈数 15.344441 15.34377
Detailed Information
固有亮度:
5
最大亮度:
2.5
卫星平台:
Starlink V1.0
覆盖范围:
全球
运营商:
太空探索技术公司
运营商所在国:
美国
制造商(研发单位):
太空探索技术公司
制造商所在国:
美国
使用方式:
暂无
Satellite Introduction
Starlink 计划是 SpaceX 推出的全球卫星互联网项目,通过发射低轨道卫星,为全球尤其是偏远地区提供高速、低延迟的互联网服务。自 2019 年起,Starlink 已部署数千颗卫星,旨在缩小全球数字鸿沟,推动互联网普及。该项目还为军事、航空等行业提供通信支持,带来广泛经济效益。
2D Orbit Map
3D Orbit Map
Orbit Altitude Analysis Chart
Orbit Inclination Analysis Chart
Orbit Comprehensive Analysis Chart
View Comprehensive Chart
Conjunction Data List
Event ID Objects TCA Miss Dist (km) Collision Risk Probability Collision Risk Index (CRI) Action
CDM_260911-072406-806706-855521
2026-09-11T
07:24:49+0000
0.198 km
中距离
5.558405E-4 高风险 0.9
CDM_260912-115205-883406-855523
2026-09-12T
11:52:37+0000
0.607 km
远距离
1.128137E-4 高风险 0.76
CDM_260913-142206-855506-994721
2026-09-13T
14:22:44+0000
0.655 km
远距离
9.06006E-5 中风险 0.74
CDM_260913-124806-855506-994721
2026-09-13T
12:48:57+0000
0.776 km
远距离
5.443374E-5 中风险 0.7
CDM_260911-142606-806706-855521
2026-09-11T
14:26:52+0000
0.773 km
远距离
2.92883E-5 中风险 0.64
CDM_260912-205806-003006-855521
2026-09-12T
20:58:20+0000
0.920 km
远距离
2.174425E-5 中风险 0.62
CDM_260913-032506-170006-855521
2026-09-13T
03:25:36+0000
1.330 km
极远距离
8.666711E-6 低风险 0.54
CDM_260913-181606-170006-855521
2026-09-13T
18:16:36+0000
1.443 km
极远距离
6.580704E-6 低风险 0.51
CDM_260913-041705-883406-855521
2026-09-13T
04:17:25+0000
1.491 km
极远距离
6.010423E-6 低风险 0.51
CDM_260913-055105-883406-855521
2026-09-13T
05:51:12+0000
1.770 km
极远距离
3.53423E-6 低风险 0.46
Miss Distance Evolution Trend with All Objects
Collision Probability Evolution Trend with All Objects